weather.gov     
National Weather Service

Regional Weather Roundup
NWS Homepage
This page is being discontinued on March 12, 2014.
The same data is available at this site. Please update your bookmarks.
Thank you, and we apologize for the inconvenience.
Please send an email to SR-SRH.Webmaster@noaa.gov with any concerns.


Current Version
Previous Version:    01  02  03  04  05  06  07  08  09  10  11  12  13  14  15  16  17  18  19  20  21  22  23  24  25  26  27  28  29  30  
   31  32  33  34  35  36  37  38  39  40  41  42  43  44  45  46  47  48  49  50  51  52  53  54  55  56  
[Printable]
462
ASUS46 KSGX 020010
RWRSGX

SAN DIEGO HOURLY WEATHER ROUNDUP
NATIONAL WEATHER SERVICE SAN DIEGO CA
500 PM PDT WED OCT 01 2014

NOTE: "FAIR" INDICATES FEW OR NO CLOUDS BELOW 12,000 FEET WITH NO
SIGNIFICANT WEATHER AND/OR OBSTRUCTIONS TO VISIBILITY.

CAZ042-043-060-061-PZZ750-775-020100-

GREATER SAN DIEGO AREA

CITY           SKY/WX    TMP DP  RH WIND       PRES   REMARKS
LINDBERGH FLD  MOSUNNY   74  61  63 W7        29.80S
POINT LOMA       N/A     71  61  71 W7          N/A
NATIONAL CITY    N/A     73  65  76 CALM      29.80R
CHULA VISTA      N/A     73  65  78 W1        29.73S
IMPERIAL BEACH MOSUNNY   71  63  75 NW8       29.80R
BROWN FIELD    SUNNY     72  62  71 NW6       29.80R
MIRAMAR MCAS   MOSUNNY   74  60  61 W7        29.80R
MONTGOMERY FLD SUNNY     74  62  66 W6        29.80R

$$

NORTH SAN DIEGO COUNTY

CITY           SKY/WX    TMP DP  RH WIND       PRES   REMARKS
CAMP PENDLETON SUNNY     73  61  65 SW9       29.78R
OCEANSIDE AP   SUNNY     74  63  68 W6        29.78R
OCEANSIDE HBR    N/A     71  67  85 W6        29.81S
VISTA            N/A     75  64  68 SW2       29.77R
CARLSBAD       MOSUNNY   71  63  75 W7        29.79R
DEL MAR          N/A     72  65  79 CALM      29.82R
FALLBROOK        N/A     76  65  67 S8        29.78R
ESCONDIDO        N/A     77  64  64 S6        29.80R
SAN MARCOS       N/A     74  64  71 CALM      29.77R
POWAY            N/A     77  64  63 W7        29.79R

$$

EAST SAN DIEGO COUNTY

CITY           SKY/WX    TMP DP  RH WIND       PRES   REMARKS
RAMONA         SUNNY     77  59  53 W10       29.81R
SANTEE LAKES     N/A     77  64  62 W6        29.79R
LA MESA          N/A     75  64  70 NW5       29.72S
JAMUL            N/A     75  62  62 W5        29.77S
MT. LAGUNA OBS   N/A     63  32  31 N17       29.62S
CAMPO            N/A     82  33  17 E17G26    29.82R

$$

ORANGE COUNTY AND THE LOS ANGELES BASIN

CITY           SKY/WX    TMP DP  RH WIND       PRES   REMARKS
JOHN WAYNE AP  SUNNY     78  61  55 SW9       29.78R
LAGUNA BEACH     N/A     75  66  74 CALM      29.75R
LAKE FOREST FR   N/A     80  59  48 CALM      29.68R
SANTA ANA        N/A     80  65  60 S1        29.73R
HUNTINGTON BCH   N/A     75  66  75 W5        29.81R
LOS ALAMITOS   SUNNY     75  63  66 SW9       29.78R
FULLERTON      SUNNY     79  60  52 SW8       29.76R
LONG BEACH     SUNNY     78  63  59 NW10      29.77S
L.A. AP        MOSUNNY   71  62  73 W13       29.79S
L.A. DOWNTOWN  SUNNY     76  62  62 VRB3      29.78R

$$

THE INLAND EMPIRE

CITY           SKY/WX    TMP DP  RH WIND       PRES   REMARKS
CORONA         SUNNY     83  58  42 W13       29.77R
CHINO          SUNNY     85  58  39 W14       29.78R
ONTARIO        SUNNY     86  54  33 W12       29.77R
SAN BERNARDINO SUNNY     88  46  23 SW12      29.77R
RIVERSIDE AP   SUNNY     85  57  38 W10G21    29.76S
RIV CYN CREST    N/A     87  65  47 NW6       29.75R
MORENO VALLEY    N/A     89  55  31 W6        28.95S
MARCH ARB      SUNNY     86  53  32 NW13      29.79R
HORSETHIEF CYN   N/A     86  46  24 NW2       29.78R
PERRIS           N/A     87  51  29 NW5       29.75R
MENIFEE          N/A     93  48  21 NW3       29.82R
HEMET EAST       N/A     91  38  15 CALM      29.75R
FRENCH VALLEY  FAIR      81  59  47 S12       29.79S
TEMECULA         N/A     80  59  48 S6        29.71R

$$

SAN BERNARDINO AND RIVERSIDE COUNTY MOUNTAINS

CITY           SKY/WX    TMP DP  RH WIND       PRES   REMARKS
BIG BEAR AP    SUNNY     61  28  29 NE10G20   30.14S
ANGELUS OAKS     N/A     70  36  28 CALM      29.76R
PINE COVE        N/A     71  35  26 SW1       29.74R

$$

SOUTHERN DESERT INCLUDING THE COACHELLA VALLEY

CITY           SKY/WX    TMP DP  RH WIND       PRES   REMARKS
PALM SPRINGS   SUNNY     98  33  10 N10       29.76R
THOUSAND PALMS   N/A     96  37  13 E1        29.70R
PALM DESERT      N/A    100  42  13 CALM      31.34S HX  95
THERMAL        SUNNY     97  37  12 NW5       29.69R
BLYTHE         SUNNY     93  44  18 E7        29.74S
IMPERIAL AP    SUNNY     93  37  14 SE7       29.70S
EL CENTRO NAS  SUNNY     94  33  11 CALM      29.71S
YUMA AZ        SUNNY     95  41  15 CALM      29.72R
MEXICALI       SUNNY     95  34  11 W7        29.72

$$

UPPER DESERT

CITY           SKY/WX    TMP DP  RH WIND       PRES   REMARKS
VICTORVILLE AP SUNNY     82  30  15 NE14      29.92S
HESPERIA         N/A     81  34  18 SE7       29.93S
APPLE VALLEY     N/A     82  34  17 NE6       29.96F
PALMDALE       SUNNY     85  30  13 E20       29.89R
LANCASTER      SUNNY     85  31  14 E14G20    29.88S
EDWARDS AFB    SUNNY     86  30  13 NE13      29.87S
DAGGETT        SUNNY     87  31  13 N9        29.87R
29 PALMS N     SUNNY     87  36  16 N13G20    29.92S
NEEDLES        SUNNY     92  35  13 N21       29.80R

$$

REGIONAL REPORTS

CITY           SKY/WX    TMP DP  RH WIND       PRES   REMARKS
SANTA BARBARA  SUNNY     73  62  68 W9        29.78F
SANDBERG       SUNNY     79  28  15 E15G28    30.01S
MT. WILSON       N/A     75  46  35 SW7         N/A
LAS VEGAS NV   SUNNY     82  20  10 NE10      29.87S
PHOENIX AZ     MOSUNNY   89  38  16 W7        29.76R
TIJUANA        SUNNY     73  59  60 W9        29.82R
ENSENADA NW      N/A     71  32  23 SW1       29.77S

$$

OFFSHORE ISLANDS

CITY           SKY/WX    TMP DP  RH WIND       PRES   REMARKS
CATALINA ARPT  SUNNY     71  59  65 SW6       29.84R
SAN CLEMENTE I SUNNY     69  59  70 SW8       29.81S
SAN NICOLAS IS SUNNY    N/A N/A N/A NW7       29.80F

$$

MARINE AND OFFSHORE BUOY REPORTS

STATION/POSITION SKY/WX   TEMP    WIND        PRES    SWELL
                          AIR SEA DIR/SP/G            HT/PER/DIR
                          (F)     (DEG/KT/KT) (MB)    (FT/S/D)
TANNER BANKS               67 69  280/  2/  4 1008.7R   8/310/ 9
S CLEMENTE BASIN           69 73  280/  8/ 10 1008.5F   5/290/10
SO. S. ROSA ISLA           66 65  290/  6/  8 1008.6S   8/10
W. S. BARBARA CH           65 64  270/  6/  8 1008.2F   8/300/11
M. S. BARBARA CH           68 69  260/  6/  8 1009.0F
S. MONICA BASIN            67 71  240/  6/  8 1008.6S   3/230/11
LA JOLLA 1                 72 73  240/  2/  5 1008.9S
SAN DIEGO BAY                 74              1009.3F

$$





U.S. Dept. of Commerce
NOAA National Weather Service
1325 East West Highway
Silver Spring, MD 20910
E-mail: w-nws.webmaster@noaa.gov
Page last modified: May 16, 2007
NATIONAL WEATHER SERVICE: for Safety, for Work, for Fun - FOR LIFE